This is the latest recevied weather packets stored in our database for station/object SQ9NFI-4. If no packets are shown the sender has not sent any weather packets the latest 1 day(s).
| Time | Temp. | Humidity | Pressure | Rain* | Wind** | Luminosity | Snow |
|---|---|---|---|---|---|---|---|
| 1778084978 | 22.22° C | 41% | 1006.8 hPa | 0 mm | - | 19 W/m² | - |
| 1778084678 | 22.78° C | 41% | 1006.8 hPa | 0 mm | - | 20 W/m² | - |
| 1778084378 | 22.78° C | 42% | 1006.8 hPa | 0 mm | - | 18 W/m² | - |
| 1778084078 | 22.78° C | 39% | 1006.8 hPa | 0 mm | - | 23 W/m² | - |
| 1778083778 | 23.33° C | 38% | 1006.4 hPa | 0 mm | - | 30 W/m² | - |
| 1778083478 | 24.44° C | 37% | 1006.4 hPa | 0 mm | - | 34 W/m² | - |
| 1778082878 | 26.11° C | 35% | 1006.8 hPa | 0 mm | - | 142 W/m² | - |
| 1778082578 | 25.56° C | 34% | 1006.8 hPa | 0 mm | - | 183 W/m² | - |
| 1778082278 | 25.56° C | 34% | 1006.8 hPa | 0 mm | - | 157 W/m² | - |
| 1778081978 | 25° C | 35% | 1006.8 hPa | 0 mm | - | 63 W/m² | - |
| 1778081678 | 25.56° C | 33% | 1006.8 hPa | 0 mm | - | 79 W/m² | - |
| 1778081378 | 26.67° C | 32% | 1006.8 hPa | 0 mm | - | 193 W/m² | - |
| 1778081078 | 27.22° C | 32% | 1006.8 hPa | 0 mm | - | 247 W/m² | - |
| 1778080778 | 26.67° C | 32% | 1006.8 hPa | 0 mm | - | 245 W/m² | - |
| 1778080478 | 26.67° C | 32% | 1006.8 hPa | 0 mm | - | 281 W/m² | - |
| 1778080178 | 26.67° C | 33% | 1007.5 hPa | 0 mm | - | 280 W/m² | - |
| 1778079878 | 26.67° C | 33% | 1007.5 hPa | 0 mm | - | 144 W/m² | - |
| 1778079278 | 26.67° C | 33% | 1007.5 hPa | 0 mm | - | 303 W/m² | - |
| 1778078978 | 26.11° C | 36% | 1007.5 hPa | 0 mm | - | 307 W/m² | - |
| 1778078678 | 26.11° C | 34% | 1007.5 hPa | 0 mm | - | 258 W/m² | - |
| 1778078378 | 25.56° C | 34% | 1007.5 hPa | 0 mm | - | 169 W/m² | - |
| 1778078078 | 26.11° C | 34% | 1007.8 hPa | 0 mm | - | 300 W/m² | - |
| 1778077778 | 26.11° C | 33% | 1007.8 hPa | 0 mm | - | 370 W/m² | - |
| 1778077478 | 26.67° C | 33% | 1007.8 hPa | 0 mm | - | 347 W/m² | - |
| 1778077178 | 26.67° C | 32% | 1007.8 hPa | 0 mm | - | 407 W/m² | - |
* Rain latest hour (hover to see other rain measurements)
** Current wind speed in m/s (hover to see current wind gust speed)